Skip Page Navigation
NASA JPL Caltech
NASA Logo - Jet Propulsion Laboratory + View the NASA Portal
+ Center for Near-Earth Object Studies
JPL Home Earth Solar System Stars & Galaxies Technology
JPL Solar System Dynamics
BODIES ORBITS EPHEMERIDES TOOLS PHYSICAL DATA DISCOVERY FAQ SITE MAP
JPL Small-Body Database Browser
Search: [ help ]  
17160 (1999 LT10)
Classification: Main-belt Asteroid          SPK-ID: 2017160
Ephemeris | Orbit Diagram | Orbital Elements | Mission Design | Physical Parameters | Discovery Circumstances | Close-Approach Data ]

[ show orbit diagram ]
Orbital Elements at Epoch 2459200.5 (2020-Dec-17.0) TDB
Reference: JPL 29 (heliocentric ecliptic J2000)
 Element Value Uncertainty (1-sigma)   Units 
e .03213181814447339 4.6228e-08  
a 3.104555547776608 1.8533e-08 au
q 3.004800533496034 1.4534e-07 au
i 9.973363602083213 5.1489e-06 deg
node 169.3582350987682 2.0533e-05 deg
peri 192.2532227175885 5.6572e-05 deg
M 229.1318014142494 5.3831e-05 deg
tp 2459926.822006154297
(2022-Dec-13.32200615)
0.00030037 TDB
period 1998.009639020256
5.47
1.7891e-05
4.898e-08
d
yr
n .180179310934921 1.6134e-09 deg/d
Q 3.204310562057182 1.9128e-08 au
  Orbit Determination Parameters
   # obs. used (total)      1339  
   data-arc span      11047 days (30.25 yr)  
   first obs. used      1990-11-20  
   last obs. used      2021-02-17  
   planetary ephem.      DE441  
   SB-pert. ephem.      SB441-N16  
   condition code      0  
   norm. resid. RMS      .52204  
   source      ORB  
   producer      Otto Matic  
   solution date      2021-Apr-13 01:55:56  

Additional Information
 Earth MOID = 1.99924 au 
 Jupiter MOID = 1.95305 au 
 T_jup = 3.197 
[ show covariance matrix ]

Ephemeris | Orbit Diagram | Orbital Elements | Mission Design | Physical Parameters | Discovery Circumstances | Close-Approach Data ]

Physical Parameter Table
Parameter Symbol Value Units Sigma Reference Notes
absolute magnitude H 13.74   n/a E2021B10  
diameter diameter 5.947 km 0.419 urn:nasa:pds:neowise_diameters_albedos::2.0[mainbelt] (http://adsabs.harvard.edu/abs/2011ApJ...741...68M)  
geometric albedo albedo 0.199   0.017 urn:nasa:pds:neowise_diameters_albedos::2.0[mainbelt] (http://adsabs.harvard.edu/abs/2011ApJ...741...68M)  

17160 (1999 LT10)          Discovered 1999-Jun-08 by LINEAR at Socorro
Reference: 20000913/Numbers.arcLast Updated: 2004-04-19

[ show close-approach data ]
Alternate Designations
 1999 LT10 = 1990 WJ9 = 1998 FE33 
Ephemeris | Orbit Diagram | Orbital Elements | Mission Design | Physical Parameters | Discovery Circumstances | Close-Approach Data ]
ABOUT SSD CREDITS/AWARDS PRIVACY/COPYRIGHT GLOSSARY LINKS
FirstGov 2021-Apr-19 10:33 UT
(server date/time)  
NASA Home Page
Site Manager:   Ryan S. Park
Webmaster  Alan B. Chamberlin